Weather History for Iliamna, AK

Change the Weather History Date:

Sunday, March 23, 2014

  Actual Average Record
Temperature  
Mean Temperature 29 °F -  
Max Temperature 37 °F 33 °F 47 °F (1984)
Min Temperature 21 °F 18 °F -12 °F (1943)
Degree Days  
Heating Degree Days 36    
Moisture  
Dew Point 12 °F    
Average Humidity 47    
Maximum Humidity 60    
Minimum Humidity 25    
Precipitation  
Precipitation 0.00 in - - ()
Sea Level Pressure  
Sea Level Pressure 30.39 in    
Wind  
Wind Speed 7 mph (ENE)    
Max Wind Speed 10 mph    
Max Gust Speed -    
Visibility 10 miles    
Events      
Averages and records for this station are not official NWS values.
T = Trace of Precipitation, MM = Missing Value Source: NWS Daily Summary

Daily Weather History Graph

Daily Weather History Graph

Search for Another Location

Airport:

Trip Planner

Search our weather history database for the weather conditions in past years. The results will help you decide how hot, cold, wet, or windy it might be!

Date:

Astronomy

Mar. 23, 2014 Rise Set
Actual Time 8:11 AM AKDT 8:42 PM AKDT
Civil Twilight 7:30 AM AKDT 9:23 PM AKDT
Nautical Twilight 6:39 AM AKDT 10:14 PM AKDT
Astronomical Twilight 5:44 AM AKDT 11:09 PM AKDT
Moon 4:22 AM AKDT (3/23) 11:50 AM AKDT (3/23)
Length of Visible Light 13h 53m
Length of Day
12h 30m
Waning Gibbous, 53% of the Moon is Illuminated
Mar 23
Waning Gibbous
Mar 23
Last Quarter
Mar 30
New
Apr 7
First Quarter
Apr 14
Full

Hourly Weather History & Observations

Time (AKDT) Temp. Windchill Dew Point Humidity Pressure Visibility Wind Dir Wind Speed Gust Speed Precip Events Conditions
12:53 AM 23.0 °F 17.0 °F 10.9 °F 60% 30.44 in 10.0 mi North 4.6 mph - N/A   Clear
1:53 AM 25.0 °F 16.3 °F 10.9 °F 55% 30.43 in 10.0 mi North 8.1 mph - N/A   Clear
2:53 AM 24.1 °F 14.4 °F 12.0 °F 60% 30.43 in 10.0 mi North 9.2 mph - N/A   Clear
3:53 AM 24.1 °F 15.2 °F 10.9 °F 57% 30.43 in 10.0 mi North 8.1 mph - N/A   Clear
4:53 AM 21.9 °F 15.7 °F 9.0 °F 58% 30.43 in 10.0 mi North 4.6 mph - N/A   Clear
5:53 AM 23.0 °F 13.9 °F 9.0 °F 55% 30.43 in 10.0 mi North 8.1 mph - N/A   Clear
6:53 AM 24.1 °F 14.4 °F 8.1 °F 51% 30.42 in 10.0 mi North 9.2 mph - N/A   Clear
7:53 AM 24.1 °F 15.2 °F 7.0 °F 48% 30.42 in 10.0 mi NNE 8.1 mph - N/A   Clear
8:53 AM 27.0 °F 17.3 °F 8.1 °F 45% 30.41 in 10.0 mi NE 10.4 mph - N/A   Clear
9:53 AM 30.0 °F 24.1 °F 8.1 °F 40% 30.41 in 10.0 mi North 5.8 mph - N/A   Clear
10:53 AM 32.0 °F 27.5 °F 10.0 °F 40% 30.40 in 10.0 mi NNE 4.6 mph - N/A   Clear
11:53 AM 35.1 °F 27.4 °F 10.9 °F 37% 30.40 in 10.0 mi ENE 10.4 mph - N/A   Clear
12:53 PM 36.0 °F 29.0 °F 15.1 °F 43% 30.40 in 10.0 mi ESE 9.2 mph - N/A   Clear
1:53 PM 36.0 °F 29.6 °F 18.0 °F 48% 30.40 in 10.0 mi ESE 8.1 mph - N/A   Scattered Clouds
2:53 PM 37.0 °F 30.4 °F 19.9 °F 50% 30.38 in 10.0 mi ESE 9.2 mph - N/A   Scattered Clouds
3:53 PM 37.9 °F 31.5 °F 18.0 °F 45% 30.37 in 10.0 mi ESE 9.2 mph - N/A   Scattered Clouds
4:53 PM 37.0 °F 32.4 °F 17.1 °F 44% 30.36 in 10.0 mi ESE 5.8 mph - N/A   Scattered Clouds
5:53 PM 37.0 °F 31.6 °F 15.1 °F 41% 30.35 in 10.0 mi SE 6.9 mph - N/A   Scattered Clouds
6:53 PM 35.1 °F 27.9 °F 15.1 °F 44% 30.34 in 10.0 mi SSE 9.2 mph - N/A   Scattered Clouds
7:53 PM 33.1 °F 30.0 °F 14.0 °F 46% 30.34 in 10.0 mi ESE 3.5 mph - N/A   Partly Cloudy
8:53 PM 30.9 °F 22.8 °F 14.0 °F 50% 30.34 in 10.0 mi SSE 9.2 mph - N/A   Partly Cloudy
9:53 PM 28.0 °F - 10.9 °F 49% 30.35 in 10.0 mi Calm Calm - N/A   Partly Cloudy
10:53 PM 28.9 °F 21.1 °F 12.0 °F 49% 30.35 in 10.0 mi East 8.1 mph - N/A   Clear
11:53 PM 28.0 °F - 14.0 °F 56% 30.35 in 10.0 mi Calm Calm - N/A   Clear